Weather History for Middlesboro, KY

Change the Weather History Date:

Monday, February 18, 2013

  Actual Average (KLOZ) Record (KLOZ)
Temperature  
Mean Temperature 34 °F 40 °F  
Max Temperature 48 °F 51 °F 71 °F (1986)
Min Temperature 21 °F 30 °F -4 °F (1958)
Degree Days  
Heating Degree Days 30 25  
Month to date heating degree days 479  
Since 1 July heating degree days 3042  
Cooling Degree Days 0 0  
Month to date cooling degree days 0  
Year to date cooling degree days 0  
Moisture  
Dew Point 20 °F    
Average Humidity 76    
Maximum Humidity 100    
Minimum Humidity 39    
Precipitation  
Precipitation 0.00 in 0.13 in 1.30 in (1991)
Month to date precipitation 2.34  
Year to date precipitation 5.88  
Sea Level Pressure  
Sea Level Pressure 30.14 in    
Wind  
Wind Speed 4 mph (South)    
Max Wind Speed 15 mph    
Max Gust Speed 26 mph    
Visibility 10 miles    
Events      
T = Trace of Precipitation, MM = Missing Value Source: NWS Daily Summary

Daily Weather History Graph

Daily Weather History Graph

Search for Another Location

Airport:

Trip Planner

Search our weather history database for the weather conditions in past years. The results will help you decide how hot, cold, wet, or windy it might be!

Date:

Astronomy

Feb. 18, 2013 Rise Set
Actual Time 6:19 AM CST 5:18 PM CST
Civil Twilight 5:52 AM CST 5:45 PM CST
Nautical Twilight 5:22 AM CST 6:15 PM CST
Astronomical Twilight 4:52 AM CST 6:45 PM CST
Moon 11:08 AM CST (2/18) 12:53 AM CST (2/18)
Length of Visible Light 11h 52m
Length of Day
10h 59m
First Quarter, 58% of the Moon is Illuminated
Feb 18
First Quarter
Feb 25
Full
Mar 4
Last Quarter
Mar 11
New
Mar 19
First Quarter

Hourly Weather History & Observations

Time (CST) Temp. Windchill Dew Point Humidity Pressure Visibility Wind Dir Wind Speed Gust Speed Precip Events Conditions
12:15 AM 23.0 °F - 19.4 °F 86% 30.24 in 10.0 mi Calm Calm - N/A   Clear
12:35 AM 23.0 °F - 19.4 °F 86% 30.25 in 10.0 mi Calm Calm - N/A   Clear
12:55 AM 21.2 °F - 19.4 °F 93% 30.24 in 10.0 mi Calm Calm - N/A   Clear
1:15 AM 21.2 °F - 19.4 °F 93% 30.25 in 10.0 mi Calm Calm - N/A   Clear
1:35 AM 21.2 °F - 19.4 °F 93% 30.25 in 10.0 mi Calm Calm - N/A   Clear
1:55 AM 21.2 °F - 19.4 °F 93% 30.25 in 10.0 mi Calm Calm - N/A   Clear
2:15 AM 21.2 °F - 19.4 °F 93% 30.25 in 10.0 mi Calm Calm - N/A   Clear
2:35 AM 21.2 °F - 19.4 °F 93% 30.25 in 10.0 mi Calm Calm - N/A   Clear
2:55 AM 21.2 °F - 19.4 °F 93% 30.25 in 10.0 mi Calm Calm - N/A   Clear
3:15 AM 21.2 °F - 19.4 °F 93% 30.25 in 10.0 mi Calm Calm - N/A   Clear
3:35 AM 21.2 °F - 19.4 °F 93% 30.25 in 10.0 mi Calm Calm - N/A   Clear
3:55 AM 21.2 °F - 19.4 °F 93% 30.26 in 10.0 mi Calm Calm - N/A   Clear
4:15 AM 21.2 °F - 19.4 °F 93% 30.26 in 10.0 mi Calm Calm - N/A   Clear
4:35 AM 21.2 °F - 21.2 °F 100% 30.27 in 10.0 mi Calm Calm - N/A   Clear
4:55 AM 21.2 °F - 19.4 °F 93% 30.27 in 10.0 mi Calm Calm - N/A   Clear
5:15 AM 21.2 °F - 19.4 °F 93% 30.27 in 10.0 mi Calm Calm - N/A   Clear
5:35 AM 21.2 °F - 19.4 °F 93% 30.27 in 10.0 mi Calm Calm - N/A   Clear
6:15 AM 21.2 °F - 21.2 °F 100% 30.26 in 10.0 mi Calm Calm - N/A   Clear
6:35 AM 21.2 °F - 21.2 °F 100% 30.26 in 10.0 mi Calm Calm - N/A   Clear
6:55 AM 23.0 °F - 21.2 °F 93% 30.27 in 7.0 mi Calm Calm - N/A   Clear
7:15 AM 24.8 °F - 21.2 °F 86% 30.27 in 7.0 mi Calm Calm - N/A   Clear
7:35 AM 30.2 °F - 21.2 °F 69% 30.27 in 10.0 mi Calm Calm - N/A   Clear
7:55 AM 35.6 °F 32.8 °F 21.2 °F 56% 30.27 in 10.0 mi ESE 3.5 mph - N/A   Clear
8:15 AM 37.4 °F 34.9 °F 19.4 °F 48% 30.27 in 10.0 mi ESE 3.5 mph - N/A   Clear
8:35 AM 39.2 °F 35.0 °F 19.4 °F 45% 30.27 in 10.0 mi SE 5.8 mph - N/A   Clear
8:55 AM 41.0 °F 36.4 °F 19.4 °F 42% 30.26 in 10.0 mi ESE 6.9 mph - N/A   Clear
9:15 AM 42.8 °F 37.0 °F 21.2 °F 42% 30.26 in 10.0 mi South 10.4 mph 18.4 mph N/A   Clear
9:35 AM 42.8 °F 38.0 °F 21.2 °F 42% 30.26 in 10.0 mi SE 8.1 mph 20.7 mph N/A   Clear
9:55 AM 44.6 °F 40.7 °F 21.2 °F 39% 30.25 in 10.0 mi SE 6.9 mph - N/A   Clear
10:15 AM 46.4 °F 44.3 °F 23.0 °F 40% 30.25 in 10.0 mi SE 4.6 mph - N/A   Clear
10:35 AM 46.4 °F 43.5 °F 23.0 °F 40% 30.25 in 10.0 mi South 5.8 mph - N/A   Clear
10:55 AM 48.2 °F - 24.8 °F 40% 30.24 in 10.0 mi South 9.2 mph 17.3 mph N/A   Clear
11:15 AM 48.2 °F - 24.8 °F 40% 30.22 in 10.0 mi South 9.2 mph 17.3 mph N/A   Clear
11:35 AM - - - N/A% 30.21 in 10.0 mi South 12.7 mph 19.6 mph N/A   Clear
11:55 AM - - - N/A% 30.20 in 10.0 mi South 10.4 mph 19.6 mph N/A   Clear
12:15 PM - - - N/A% 30.18 in 10.0 mi South 9.2 mph - N/A   Clear
12:35 PM - - - N/A% 30.16 in 10.0 mi South 11.5 mph 18.4 mph N/A   Clear
12:55 PM - - - N/A% 30.14 in 10.0 mi South 13.8 mph 21.9 mph N/A   Clear
1:15 PM - - - N/A% 30.14 in 10.0 mi South 13.8 mph 19.6 mph N/A   Clear
1:35 PM - - - N/A% 30.12 in 10.0 mi South 9.2 mph 20.7 mph N/A   Clear
2:15 PM - - - N/A% 30.11 in 10.0 mi South 9.2 mph 16.1 mph N/A   Clear
2:35 PM - - - N/A% 30.11 in 10.0 mi South 15.0 mph 19.6 mph N/A   Clear
2:55 PM - - - N/A% 30.10 in 10.0 mi South 13.8 mph 19.6 mph N/A   Clear
3:15 PM - - - N/A% 30.10 in 10.0 mi South 9.2 mph 18.4 mph N/A   Clear
3:35 PM - - - N/A% 30.09 in 10.0 mi South 13.8 mph 23.0 mph N/A   Clear
3:55 PM - - - N/A% 30.08 in 10.0 mi South 8.1 mph 17.3 mph N/A   Clear
4:15 PM - - - N/A% 30.07 in 10.0 mi SSW 6.9 mph - N/A   Clear
4:35 PM - - - N/A% 30.06 in 10.0 mi Calm Calm - N/A   Clear
4:55 PM - - - N/A% 30.05 in 10.0 mi South 5.8 mph - N/A   Clear
5:15 PM - - - N/A% 30.04 in 10.0 mi SE 4.6 mph - N/A   Clear
5:35 PM - - - N/A% 30.04 in 10.0 mi South 6.9 mph - N/A   Clear
5:55 PM - - - N/A% 30.03 in 10.0 mi South 8.1 mph - N/A   Clear
6:15 PM - - - N/A% 30.03 in 10.0 mi Calm Calm - N/A   Clear
6:35 PM - - - N/A% 30.03 in 10.0 mi South 5.8 mph - N/A   Clear
6:55 PM - - - N/A% 30.01 in 10.0 mi South 5.8 mph - N/A   Clear
7:15 PM - - - N/A% 30.02 in 10.0 mi Calm Calm - N/A   Clear
7:35 PM - - - N/A% 30.00 in 10.0 mi SSW 4.6 mph - N/A   Clear
7:55 PM - - - N/A% 29.98 in 10.0 mi South 3.5 mph - N/A   Clear
8:15 PM - - - N/A% 29.96 in 10.0 mi South 8.1 mph - N/A   Unknown
8:35 PM - - - N/A% 29.97 in 10.0 mi SSW 5.8 mph 16.1 mph N/A   Unknown
8:55 PM - - - N/A% 29.97 in 10.0 mi South 6.9 mph - N/A   Unknown
9:15 PM - - - N/A% 29.96 in 10.0 mi South 10.4 mph 17.3 mph N/A   Unknown
9:35 PM - - - N/A% 29.95 in 10.0 mi South 10.4 mph 17.3 mph N/A   Unknown
9:55 PM - - - N/A% 29.94 in 10.0 mi South 13.8 mph 25.3 mph N/A   Unknown
10:15 PM - - - N/A% 29.94 in 10.0 mi SSW 10.4 mph 20.7 mph N/A   Clear
10:35 PM - - - N/A% 29.94 in 10.0 mi SSW 15.0 mph 26.5 mph N/A   Unknown
10:55 PM - - - N/A% 29.94 in 10.0 mi South 15.0 mph 24.2 mph N/A   Scattered Clouds
11:15 PM - - - N/A% 29.94 in 10.0 mi SSW 15.0 mph 23.0 mph N/A   Scattered Clouds
11:35 PM - - - N/A% 29.93 in 10.0 mi SSW 8.1 mph 19.6 mph N/A   Clear
11:55 PM - - - N/A% 29.92 in 10.0 mi SSW 10.4 mph 19.6 mph N/A   Clear